1513015200.18,4991,5.0,72092.5,-2.75,-3.47,-3.55,0,*66
1513015201.45,4992,5.0,72084.3,-2.75,-3.55,-3.55,0,*66
1513015202.68,4993,5.0,72086.3,-2.73,-3.55,-3.55,0,*61
1513015203.91,4994,5.0,72094.5,-2.73,-3.55,-3.63,0,*63
1513015205.17,4995,5.0,72086.5,-2.75,-3.67,-3.63,0,*65
1513015206.44,4996,5.0,72080.8,-2.75,-3.63,-3.63,0,*62
1513015207.7,4997,5.0,72098.8,-2.75,-3.55,-3.55,0,*63
1513015208.96,4998,5.0,72106.0,-2.75,-3.63,-3.55,0,*69
1513015210.23,4999,5.0,72110.8,-2.75,-3.51,-3.55,0,*69
1513015211.48,5000,5.0,72086.5,-2.77,-3.55,-3.55,0,*67
1513015212.73,5001,5.0,72062.0,-2.75,-3.67,-3.75,0,*67
1513015214.0,5002,5.0,72054.5,-2.75,-3.63,-3.67,0,*63
1513015215.24,5003,5.0,72066.0,-2.75,-3.67,-3.75,0,*65
1513015216.51,5004,5.0,72054.0,-2.75,-3.67,-3.63,0,*65
1513015217.75,5005,5.0,72052.5,-2.75,-3.67,-3.75,0,*63
1513015219.01,5006,5.0,72068.0,-2.75,-3.67,-3.67,0,*63
1513015220.28,5007,5.0,72066.8,-2.77,-3.71,-3.59,0,*6A
1513015221.54,5008,5.0,72060.0,-2.77,-3.71,-3.67,0,*68
1513015222.76,5009,5.0,72066.8,-2.77,-3.79,-3.83,0,*6B
1513015223.98,5010,5.0,72064.8,-2.75,-3.87,-3.79,0,*65
1513015225.21,5011,5.0,72062.5,-2.75,-3.79,-3.87,0,*64
1513015226.44,5012,5.0,72078.8,-2.75,-3.79,-3.79,0,*66
1513015227.67,5013,5.0,72092.8,-2.75,-3.79,-3.75,0,*6B
1513015228.89,5014,5.0,72080.3,-2.77,-3.83,-3.83,0,*62
1513015230.15,5015,5.0,72082.5,-2.77,-3.71,-3.71,0,*63
1513015231.39,5016,5.0,72080.3,-2.77,-3.71,-3.79,0,*68
1513015232.65,5017,5.0,72086.5,-2.75,-3.67,-3.67,0,*63
1513015233.91,5018,5.0,72088.0,-2.77,-3.71,-3.59,0,*64
1513015235.18,5019,5.0,72084.5,-2.75,-3.63,-3.55,0,*68
1513015236.43,5020,5.0,72076.8,-2.77,-3.67,-3.67,0,*65
1513015237.7,5021,5.0,72074.0,-2.77,-3.67,-3.59,0,*69
1513015238.96,5022,5.0,72070.8,-2.75,-3.55,-3.55,0,*65
1513015240.22,5023,5.0,72062.5,-2.77,-3.55,-3.55,0,*66
1513015241.48,5024,5.0,72050.0,-2.75,-3.51,-3.67,0,*66
1513015242.75,5025,5.0,72048.0,-2.75,-3.63,-3.55,0,*67
1513015243.98,5026,5.0,72054.0,-2.75,-3.75,-3.75,0,*61
1513015245.2,5027,5.0,72050.3,-2.77,-3.79,-3.79,0,*62
1513015246.46,5028,5.0,72050.8,-2.75,-3.67,-3.67,0,*6F
1513015247.71,5029,4.94,72048.3,-2.77,-3.67,-3.75,0,*6F
1513015248.96,5030,5.0,72050.3,-2.77,-3.71,-3.71,0,*64
1513015250.23,5031,5.0,72048.0,-2.77,-3.59,-3.59,0,*65
1513015251.49,5032,5.0,72048.3,-2.75,-3.55,-3.55,0,*64
1513015252.75,5033,5.0,72058.0,-2.77,-3.59,-3.55,0,*6B
1513015254.02,5034,5.0,72060.8,-2.77,-3.59,-3.59,0,*60
1513015255.28,5035,5.0,72060.5,-2.77,-3.55,-3.59,0,*6D
1513015256.55,5036,5.0,72060.3,-2.77,-3.51,-3.51,0,*62
1513015257.81,5037,5.0,72068.5,-2.77,-3.51,-3.51,0,*63
1513015259.07,5038,5.0,72066.8,-2.77,-3.51,-3.55,0,*68
1513015260.34,5039,5.0,72072.0,-2.75,-3.47,-3.51,0,*68
1513015261.6,5040,5.0,72068.8,-2.75,-3.51,-3.51,0,*61
1513015262.86,5041,5.0,72056.8,-2.77,-3.55,-3.55,0,*62
1513015264.11,5042,5.0,72048.0,-2.77,-3.55,-3.55,0,*61
1513015265.37,5043,5.0,72048.0,-2.77,-3.55,-3.55,0,*60
1513015266.64,5044,5.0,72036.5,-2.75,-3.55,-3.51,0,*61
1513015267.9,5045,5.0,72042.0,-2.77,-3.59,-3.55,0,*6A
1513015269.16,5046,5.0,72046.5,-2.75,-3.55,-3.55,0,*67
1513015270.42,5047,5.0,72030.5,-2.77,-3.59,-3.67,0,*69
1513015271.68,5048,5.0,72030.5,-2.75,-3.55,-3.55,0,*69
1513015272.94,5049,5.0,72034.0,-2.77,-3.59,-3.55,0,*66
1513015274.21,5050,5.0,72036.8,-2.77,-3.59,-3.59,0,*62
1513015275.47,5051,5.0,72040.5,-2.75,-3.55,-3.55,0,*61
1513015276.73,5052,5.0,72010.0,-2.75,-3.55,-3.55,0,*62
1513015277.99,5053,5.0,71998.3,-2.77,-3.71,-3.71,0,*61
1513015279.24,5054,5.0,72014.0,-2.77,-3.71,-3.67,0,*61
1513015280.51,5055,5.0,72004.0,-2.77,-3.71,-3.59,0,*6D
1513015281.77,5056,5.0,72006.3,-2.75,-3.63,-3.55,0,*63
1513015283.03,5057,5.0,72020.8,-2.77,-3.59,-3.67,0,*68
1513015284.3,5058,5.0,72042.3,-2.77,-3.59,-3.59,0,*6A
1513015285.57,5059,5.0,71974.5,-2.75,-3.51,-3.51,0,*69
1513015286.84,5060,5.0,72006.5,-2.75,-3.51,-3.51,0,*63
1513015288.1,5061,5.0,72038.5,-2.77,-3.51,-3.55,0,*64
1513015289.36,5062,5.0,72024.3,-2.75,-3.51,-3.47,0,*66
1513015290.62,5063,5.0,72036.8,-2.77,-3.51,-3.55,0,*66
1513015291.88,5064,5.0,72050.5,-2.77,-3.55,-3.51,0,*61
1513015293.14,5065,5.0,72032.3,-2.77,-3.51,-3.51,0,*64
1513015294.37,5066,5.0,72046.3,-2.75,-3.35,-3.35,0,*65
1513015295.61,5067,5.0,72064.0,-2.75,-3.39,-3.47,0,*6D
1513015296.86,5068,5.0,71998.0,-2.77,-3.67,-3.55,0,*68
1513015298.12,5069,5.0,71994.5,-2.75,-3.55,-3.63,0,*6F
1513015299.39,5070,5.0,71994.5,-2.75,-3.55,-3.63,0,*67
1513015300.65,5071,5.0,72010.3,-2.75,-3.55,-3.55,0,*63
1513015301.91,5072,5.0,72006.3,-2.75,-3.63,-3.55,0,*65
1513015303.17,5073,5.0,72034.0,-2.75,-3.55,-3.63,0,*64
1513015304.44,5074,5.0,72036.8,-2.75,-3.55,-3.63,0,*63
1513015305.71,5075,5.0,72064.5,-2.77,-3.59,-3.59,0,*65
1513015306.97,5076,5.0,72026.8,-2.75,-3.47,-3.55,0,*67
1513015308.22,5077,5.0,72034.0,-2.77,-3.55,-3.55,0,*67
1513015309.49,5078,5.0,72008.3,-2.77,-3.67,-3.59,0,*65
1513015310.76,5079,5.0,72016.0,-2.75,-3.55,-3.59,0,*67
1513015312.02,5080,5.0,71984.5,-2.75,-3.55,-3.55,0,*6D
1513015313.28,5081,5.0,72040.0,-2.77,-3.59,-3.55,0,*62
1513015314.54,5082,5.0,72036.5,-2.75,-3.55,-3.55,0,*6F
1513015315.8,5083,5.0,72030.5,-2.75,-3.55,-3.55,0,*6E
1513015317.07,5084,5.0,72010.0,-2.75,-3.47,-3.51,0,*6E
1513015318.34,5085,5.0,72004.8,-2.75,-3.51,-3.51,0,*68
1513015319.6,5086,5.0,72002.8,-2.77,-3.67,-3.59,0,*64
1513015320.86,5087,5.0,71992.3,-2.77,-3.67,-3.59,0,*65
1513015322.13,5088,5.0,71984.5,-2.75,-3.55,-3.63,0,*60
1513015323.39,5089,5.0,71970.8,-2.77,-3.67,-3.67,0,*66
1513015324.64,5090,5.0,71962.5,-2.77,-3.71,-3.67,0,*69
1513015325.91,5091,5.0,71974.0,-2.75,-3.63,-3.55,0,*68
1513015327.17,5092,5.0,72000.5,-2.75,-3.47,-3.55,0,*6D
1513015328.44,5093,5.0,71998.8,-2.75,-3.51,-3.63,0,*6E
1513015329.7,5094,5.0,72030.3,-2.77,-3.59,-3.59,0,*6A
1513015330.96,5095,5.0,72042.8,-2.75,-3.55,-3.55,0,*69
1513015332.23,5096,5.0,72044.3,-2.77,-3.51,-3.51,0,*68
1513015333.49,5097,5.0,72048.3,-2.77,-3.51,-3.55,0,*6D
1513015334.75,5098,4.94,72056.5,-2.77,-3.51,-3.51,0,*66
1513015336.01,5099,5.0,72066.5,-2.75,-3.47,-3.47,0,*65
1513015337.28,5100,5.0,72070.3,-2.75,-3.47,-3.51,0,*63
1513015338.55,5101,5.0,72054.8,-2.75,-3.51,-3.47,0,*62
1513015339.8,5102,5.0,72030.5,-2.77,-3.55,-3.55,0,*64
1513015341.07,5103,5.0,72018.0,-2.75,-3.51,-3.51,0,*67
1513015342.33,5104,5.0,72030.8,-2.77,-3.59,-3.67,0,*6F
1513015343.58,5105,5.0,72036.0,-2.75,-3.75,-3.67,0,*62
1513015344.81,5106,5.0,72038.8,-2.75,-3.91,-3.91,0,*62
1513015346.04,5107,5.0,72046.8,-2.75,-3.75,-3.79,0,*6F
1513015347.26,5108,5.0,72056.3,-2.77,-3.79,-3.79,0,*6E
1513015348.49,5109,5.0,72050.5,-2.75,-3.75,-3.79,0,*61
1513015349.73,5110,5.0,72040.3,-2.77,-3.71,-3.79,0,*6F
1513015351.0,5111,5.0,72050.5,-2.75,-3.55,-3.55,0,*64
1513015352.23,5112,5.0,72076.5,-2.73,-3.55,-3.51,0,*65
1513015353.5,5113,5.0,72086.0,-2.75,-3.55,-3.51,0,*62
1513015354.76,5114,5.0,72108.3,-2.75,-3.55,-3.55,0,*61
1513015356.02,5115,5.0,72082.3,-2.75,-3.55,-3.55,0,*60
1513015357.29,5116,5.0,72018.0,-2.77,-3.59,-3.59,0,*61
1513015358.55,5117,5.0,72050.8,-2.77,-3.59,-3.67,0,*6D
1513015359.79,5118,5.0,72064.0,-2.77,-3.67,-3.79,0,*60
1513015361.01,5119,5.0,72066.5,-2.77,-3.79,-3.83,0,*6B
1513015362.25,5120,5.0,72074.3,-2.77,-3.71,-3.79,0,*6C
1513015363.49,5121,5.0,72046.8,-2.77,-3.79,-3.71,0,*6D
1513015364.72,5122,5.0,72038.0,-2.77,-3.79,-3.79,0,*66
1513015365.96,5123,5.0,72040.3,-2.75,-3.67,-3.79,0,*6A
1513015367.18,5124,5.0,72046.5,-2.77,-3.79,-3.83,0,*65
1513015368.43,5125,5.0,72036.8,-2.77,-3.79,-3.71,0,*69
1513015369.67,5126,5.0,72022.8,-2.79,-3.71,-3.59,0,*66
1513015370.9,5127,5.0,72008.5,-2.79,-3.67,-3.67,0,*6D
1513015372.1,5128,5.0,72000.8,-2.79,-3.79,-3.79,0,*62
1513015373.33,5129,5.0,71994.3,-2.77,-3.79,-3.79,0,*6D
1513015374.57,5130,5.0,71984.0,-2.77,-3.71,-3.79,0,*6D
1513015375.8,5131,5.0,71988.8,-2.75,-3.79,-3.79,0,*66
1513015377.02,5132,5.0,71986.8,-2.77,-3.83,-3.83,0,*67
1513015378.28,5133,5.0,71984.8,-2.77,-3.71,-3.71,0,*66
1513015379.51,5134,5.0,71986.8,-2.79,-3.59,-3.67,0,*62
1513015380.78,5135,5.0,71986.5,-2.77,-3.59,-3.59,0,*60
1513015382.02,5136,5.0,71994.0,-2.79,-3.55,-3.51,0,*69
1513015383.26,5137,5.0,72002.8,-2.79,-3.51,-3.51,0,*6C
1513015384.51,5138,5.0,72008.5,-2.77,-3.55,-3.55,0,*6D
1513015385.78,5139,5.0,72010.3,-2.77,-3.59,-3.59,0,*6C
1513015387.04,5140,5.0,72016.0,-2.81,-3.63,-3.63,0,*6B
1513015388.28,5141,5.0,72024.3,-2.79,-3.59,-3.59,0,*6D
1513015389.55,5142,5.0,72032.0,-2.77,-3.59,-3.59,0,*60
1513015390.79,5143,5.0,72046.5,-2.79,-3.51,-3.59,0,*67
1513015392.03,5144,5.0,72058.5,-2.79,-3.51,-3.55,0,*6C
1513015393.27,5145,5.0,72070.8,-2.79,-3.55,-3.51,0,*6D
1513015394.5,5146,5.0,72074.8,-2.79,-3.43,-3.51,0,*69
1513015395.74,5147,5.0,72076.8,-2.77,-3.43,-3.39,0,*68
1513015396.98,5148,5.0,72076.5,-2.77,-3.39,-3.43,0,*67
1513015398.24,5149,5.0,72070.5,-2.77,-3.43,-3.51,0,*68
1513015399.5,5150,5.0,72074.5,-2.77,-3.55,-3.55,0,*63
1513015400.77,5151,5.0,72062.8,-2.77,-3.59,-3.59,0,*62
1513015402.02,5152,5.0,72058.8,-2.77,-3.67,-3.67,0,*61
1513015403.29,5153,5.0,72046.5,-2.77,-3.59,-3.67,0,*6D
1513015404.55,5154,5.0,72048.8,-2.77,-3.59,-3.59,0,*67
1513015405.81,5155,5.0,72044.3,-2.77,-3.59,-3.55,0,*6A
1513015407.07,5156,5.0,72034.0,-2.77,-3.55,-3.55,0,*65
1513015408.33,5157,5.0,72038.5,-2.77,-3.55,-3.55,0,*64
1513015409.59,5158,5.0,72058.8,-2.75,-3.63,-3.63,0,*69
1513015410.86,5159,4.94,72050.5,-2.75,-3.63,-3.55,0,*6D
1513015412.12,5160,5.0,72076.8,-2.77,-3.59,-3.59,0,*60
1513015413.38,5161,5.0,72078.0,-2.77,-3.59,-3.55,0,*6D
1513015414.64,5162,5.0,72056.5,-2.77,-3.67,-3.67,0,*62
1513015415.88,5163,5.0,72016.0,-2.77,-3.71,-3.83,0,*6E
1513015417.1,5164,5.0,72022.0,-2.77,-3.79,-3.83,0,*61
1513015418.32,5165,5.0,72016.3,-2.77,-4.05,-4.05,0,*65
1513015419.53,5166,5.0,72006.5,-2.77,-4.05,-3.95,0,*68
1513015420.76,5167,5.0,72010.0,-2.77,-3.91,-3.91,0,*67
1513015421.98,5168,5.0,71992.3,-2.79,-4.01,-3.95,0,*6C
1513015423.18,5169,5.0,71980.0,-2.79,-3.83,-3.83,0,*67
1513015424.38,5170,5.0,71976.3,-2.79,-3.83,-3.91,0,*6C
1513015425.58,5171,5.0,71968.5,-2.79,-3.83,-3.83,0,*6E
1513015426.78,5172,5.0,71966.8,-2.79,-3.91,-3.83,0,*6E
1513015428.0,5173,5.0,71952.3,-2.81,-3.75,-3.75,0,*6B
1513015429.22,5174,5.0,71956.5,-2.81,-3.75,-3.83,0,*65
1513015430.45,5175,5.0,71958.5,-2.79,-3.71,-3.71,0,*6A
1513015431.69,5176,5.0,71954.0,-2.79,-3.67,-3.71,0,*6E
1513015432.89,5177,5.0,71952.8,-2.79,-3.79,-3.79,0,*68
1513015434.1,5178,5.0,71950.5,-2.81,-4.09,-4.09,0,*60
1513015435.3,5179,5.0,71952.3,-2.79,-3.91,-3.83,0,*65
1513015436.5,5180,5.0,72000.5,-2.79,-3.75,-3.83,0,*69
1513015437.72,5181,5.0,71944.0,-2.81,-3.83,-3.95,0,*61
1513015438.97,5182,5.0,71926.5,-2.81,-3.63,-3.71,0,*66
1513015440.23,5183,5.0,71910.3,-2.81,-3.63,-3.71,0,*67
1513015441.44,5184,5.0,71878.0,-2.81,-3.87,-3.83,0,*67
1513015442.66,5185,5.0,71878.0,-2.81,-3.87,-3.83,0,*66
1513015443.87,5186,5.0,71852.8,-2.81,-3.87,-3.95,0,*62
1513015445.07,5187,5.0,71862.8,-2.79,-3.91,-3.91,0,*67
1513015446.31,5188,5.0,71932.0,-2.81,-3.95,-4.01,0,*65
1513015447.53,5189,5.0,71866.8,-2.81,-3.95,-3.87,0,*6D
1513015448.76,5190,5.0,71974.8,-2.79,-3.71,-3.71,0,*61
1513015450.0,5191,5.0,71924.8,-2.81,-3.71,-3.75,0,*63
1513015451.2,5192,5.0,71964.3,-2.83,-3.75,-3.75,0,*66
1513015452.45,5193,5.0,71990.3,-2.85,-3.75,-3.67,0,*62
1513015453.64,5194,5.0,72004.3,-2.83,-3.75,-3.75,0,*60
1513015454.84,5195,5.0,72046.5,-2.83,-3.75,-3.79,0,*6D
1513015456.04,5196,5.0,72010.3,-2.83,-3.75,-3.75,0,*62
1513015457.3,5197,5.0,71994.0,-2.81,-3.63,-3.63,0,*61
1513015458.56,5198,5.0,72014.8,-2.81,-3.59,-3.59,0,*6E
1513015459.83,5199,5.0,72010.5,-2.81,-3.59,-3.59,0,*6F
1513015461.09,5200,5.0,72032.3,-2.81,-3.63,-3.59,0,*65
1513015462.36,5201,5.0,72010.3,-2.81,-3.59,-3.59,0,*6D
1513015463.59,5202,5.0,71976.0,-2.79,-3.55,-3.55,0,*69
1513015464.85,5203,5.0,71946.3,-2.81,-3.59,-3.59,0,*6F
1513015466.11,5204,5.0,71922.8,-2.81,-3.63,-3.63,0,*68
1513015467.37,5205,5.0,71938.0,-2.81,-3.63,-3.63,0,*69
1513015468.61,5206,5.0,71982.0,-2.81,-3.71,-3.75,0,*6E
1513015469.83,5207,4.94,72000.8,-2.81,-3.75,-3.83,0,*62
1513015471.04,5208,5.0,71998.5,-2.81,-3.83,-3.83,0,*64
1513015472.27,5209,5.0,72026.5,-2.81,-3.83,-3.75,0,*6C
1513015473.48,5210,5.0,72044.8,-2.81,-3.83,-3.83,0,*6D
1513015474.71,5211,5.0,72052.8,-2.81,-3.83,-3.75,0,*65
1513015475.93,5212,5.0,72044.5,-2.81,-3.75,-3.75,0,*6F
1513015477.15,5213,5.0,72014.5,-2.81,-3.83,-3.75,0,*67
1513015478.37,5214,4.94,71952.0,-2.81,-3.75,-3.83,0,*60
1513015479.59,5215,5.0,71916.8,-2.81,-3.83,-3.83,0,*68
1513015480.8,5216,5.0,71952.5,-2.81,-3.95,-3.95,0,*6B
1513015482.02,5217,5.0,71988.5,-2.81,-3.87,-3.87,0,*6A
1513015483.24,5218,4.94,72022.8,-2.83,-4.01,-3.91,0,*69
1513015484.43,5219,5.0,72042.0,-2.83,-3.79,-3.87,0,*67
1513015485.63,5220,5.0,72034.8,-2.83,-3.79,-3.75,0,*60
1513015486.85,5221,5.0,72038.0,-2.83,-3.75,-3.67,0,*6E
1513015488.08,5222,5.0,72040.8,-2.83,-3.67,-3.67,0,*6E
1513015489.31,5223,5.0,72042.3,-2.83,-3.63,-3.63,0,*6F
1513015490.55,5224,5.0,72058.0,-2.83,-3.63,-3.63,0,*68
1513015491.78,5225,5.0,72068.0,-2.83,-3.63,-3.63,0,*69
1513015493.03,5226,5.0,72058.0,-2.81,-3.71,-3.71,0,*68
1513015494.27,5227,5.0,72060.8,-2.81,-3.83,-3.71,0,*64
1513015495.49,5228,5.0,72068.8,-2.79,-3.71,-3.79,0,*69
1513015496.75,5229,5.0,72032.5,-2.81,-3.63,-3.63,0,*67
1513015497.97,5230,5.0,72030.8,-2.81,-3.75,-3.75,0,*6F
1513015499.19,5231,5.0,72032.3,-2.79,-3.79,-3.71,0,*61
1513015500.44,5232,5.0,72032.8,-2.81,-3.63,-3.63,0,*6D
1513015501.7,5233,5.0,72018.0,-2.81,-3.63,-3.71,0,*6F
1513015502.96,5234,5.0,72006.8,-2.81,-3.63,-3.63,0,*6B
1513015504.21,5235,5.0,71968.5,-2.81,-3.71,-3.71,0,*6A
1513015505.45,5236,5.0,72008.0,-2.81,-3.75,-3.63,0,*6E
1513015506.67,5237,5.0,72040.8,-2.81,-3.75,-3.75,0,*68
1513015507.93,5238,5.0,72050.0,-2.81,-3.63,-3.63,0,*67
1513015509.18,5239,5.0,72056.3,-2.79,-3.59,-3.59,0,*61
1513015510.43,5240,5.0,72072.5,-2.81,-3.55,-3.55,0,*68
1513015511.69,5241,5.0,72060.0,-2.81,-3.59,-3.59,0,*69
1513015512.95,5242,5.0,72052.0,-2.81,-3.59,-3.63,0,*63
1513015514.19,5243,5.0,72048.8,-2.83,-3.63,-3.63,0,*69
1513015515.42,5244,5.0,72028.8,-2.83,-3.67,-3.67,0,*6E
1513015516.63,5245,5.0,72048.8,-2.83,-3.67,-3.75,0,*6C
1513015517.83,5246,5.0,72050.3,-2.83,-3.79,-3.75,0,*60
1513015519.03,5247,5.0,72040.8,-2.83,-3.75,-3.75,0,*6D
1513015520.25,5248,5.0,72048.8,-2.83,-3.67,-3.75,0,*61
1513015521.48,5249,5.0,72062.3,-2.83,-3.67,-3.67,0,*63
1513015522.69,5250,5.0,72060.0,-2.83,-3.67,-3.75,0,*68
1513015523.92,5251,5.0,72076.8,-2.83,-3.67,-3.67,0,*6A
1513015525.12,5252,5.0,72074.0,-2.83,-3.79,-3.75,0,*65
1513015526.32,5253,5.0,72034.8,-2.83,-3.79,-3.75,0,*64
1513015527.54,5254,5.0,72036.3,-2.81,-3.83,-3.83,0,*6D
1513015528.73,5255,5.0,72014.3,-2.83,-3.87,-3.79,0,*6F
1513015529.95,5256,5.0,72012.3,-2.81,-3.83,-3.75,0,*66
1513015531.21,5257,5.0,72010.3,-2.81,-3.63,-3.63,0,*6E
1513015532.47,5258,5.0,72034.8,-2.85,-3.67,-3.67,0,*65
1513015533.67,5259,5.0,72036.0,-2.83,-3.79,-3.87,0,*63
1513015534.86,5260,5.0,72026.5,-2.83,-3.79,-3.87,0,*69
1513015536.08,5261,5.0,72022.3,-2.81,-3.83,-3.83,0,*6B
1513015537.27,5262,5.0,72008.5,-2.83,-3.87,-3.87,0,*6A
1513015538.46,5263,5.0,72012.5,-2.83,-3.79,-3.87,0,*6A
1513015539.65,5264,5.0,72028.0,-2.83,-3.87,-3.87,0,*6C
1513015540.85,5265,5.0,72046.0,-2.83,-3.91,-3.91,0,*6D
1513015542.04,5266,5.0,72052.8,-2.83,-3.87,-3.79,0,*6F
1513015543.24,5267,5.0,72084.3,-2.83,-3.79,-3.87,0,*6E
1513015544.45,5268,5.0,72038.8,-2.83,-3.67,-3.75,0,*63
1513015545.64,5269,5.0,71998.8,-2.83,-3.87,-3.87,0,*61
1513015546.86,5270,5.0,72014.5,-2.85,-3.79,-3.87,0,*6E
1513015548.09,5271,5.0,72012.0,-2.85,-3.75,-3.79,0,*62
1513015549.32,5272,5.0,72016.5,-2.83,-3.67,-3.67,0,*6B
1513015550.56,5273,5.0,72006.8,-2.83,-3.67,-3.67,0,*6A
1513015551.76,5274,5.0,72002.0,-2.83,-3.75,-3.75,0,*6D
1513015552.94,5275,5.0,72010.3,-2.83,-3.87,-3.87,0,*6C
1513015554.14,5276,5.0,72022.8,-2.83,-3.79,-3.79,0,*6F
1513015555.34,5277,5.0,72006.3,-2.83,-3.79,-3.75,0,*62
1513015556.54,5278,5.0,72016.5,-2.83,-3.79,-3.75,0,*6D
1513015557.74,5279,5.0,72034.8,-2.83,-3.75,-3.75,0,*60
1513015558.95,5280,5.0,72026.5,-2.83,-3.79,-3.67,0,*69
1513015560.18,5281,5.0,72010.3,-2.83,-3.67,-3.67,0,*67
1513015561.4,5282,5.0,72008.0,-2.83,-3.75,-3.63,0,*63
1513015562.61,5283,5.0,72020.3,-2.83,-3.75,-3.67,0,*66
1513015563.84,5284,5.0,72028.8,-2.83,-3.67,-3.67,0,*62
1513015565.08,5285,5.0,72024.3,-2.83,-3.67,-3.67,0,*63
1513015566.31,5286,5.0,72012.5,-2.83,-3.67,-3.67,0,*60
1513015567.5,5287,5.0,72006.0,-2.83,-3.87,-3.87,0,*61
1513015568.72,5288,5.0,71986.0,-2.83,-3.91,-4.01,0,*60
1513015569.94,5289,5.0,72012.5,-2.85,-3.79,-3.87,0,*68
1513015571.14,5290,5.0,72008.5,-2.83,-3.79,-3.75,0,*6B
1513015572.33,5291,5.0,72026.5,-2.83,-3.87,-3.87,0,*66
1513015573.55,5292,5.0,72024.8,-2.83,-3.75,-3.67,0,*66
1513015574.78,5293,5.0,72034.8,-2.83,-3.67,-3.63,0,*60
1513015576.04,5294,4.94,72032.3,-2.85,-3.63,-3.63,0,*65
1513015577.28,5295,5.0,72032.5,-2.83,-3.59,-3.63,0,*6B
1513015578.52,5296,5.0,72034.5,-2.83,-3.63,-3.59,0,*68
1513015579.75,5297,5.0,72044.8,-2.83,-3.63,-3.63,0,*60
1513015580.99,5298,5.0,72042.5,-2.83,-3.63,-3.63,0,*6F
1513015582.22,5299,5.0,72044.5,-2.83,-3.63,-3.63,0,*6E
1513015583.45,5300,5.0,72062.8,-2.83,-3.63,-3.67,0,*6B
1513015584.72,5301,5.0,72074.5,-2.85,-3.63,-3.67,0,*6C
1513015585.92,5302,5.0,72046.8,-2.83,-3.75,-3.75,0,*6D
1513015587.12,5303,5.0,72026.5,-2.83,-3.79,-3.79,0,*6C
1513015588.35,5304,5.0,72018.3,-2.83,-3.67,-3.67,0,*6B
1513015589.56,5305,5.0,72008.0,-2.83,-3.75,-3.67,0,*69
1513015590.76,5306,5.0,72064.0,-2.83,-3.75,-3.75,0,*69
1513015591.99,5307,5.0,72056.3,-2.83,-3.67,-3.67,0,*68
1513015593.19,5308,4.94,72022.0,-2.83,-3.75,-3.75,0,*67
1513015594.39,5309,5.0,72030.5,-2.83,-3.79,-3.79,0,*66
1513015595.59,5310,5.0,72048.0,-2.83,-3.75,-3.79,0,*62
1513015596.79,5311,5.0,72042.8,-2.83,-3.75,-3.75,0,*6F
1513015598.0,5312,5.0,72050.8,-2.83,-3.67,-3.75,0,*6F
1513015599.24,5313,5.0,72064.3,-2.83,-3.63,-3.67,0,*69
1513015600.49,5314,5.0,72070.8,-2.81,-3.55,-3.55,0,*68
1513015601.73,5315,5.0,72074.0,-2.83,-3.63,-3.51,0,*6A
1513015602.97,5316,5.0,72064.3,-2.83,-3.59,-3.59,0,*68
1513015604.21,5317,5.0,72052.8,-2.81,-3.71,-3.75,0,*6F
1513015605.44,5318,5.0,72056.0,-2.79,-3.71,-3.71,0,*63
1513015606.64,5319,5.0,72032.8,-2.83,-3.79,-3.79,0,*67
1513015607.83,5320,5.0,72018.5,-2.83,-3.79,-3.87,0,*6C
1513015609.03,5321,5.0,72012.8,-2.83,-3.79,-3.75,0,*60
1513015610.26,5322,5.0,71996.3,-2.83,-3.67,-3.67,0,*6F
1513015611.48,5323,5.0,72018.0,-2.83,-3.75,-3.67,0,*6D
1513015612.7,5324,4.94,72020.0,-2.85,-3.87,-3.87,0,*6F
1513015613.89,5325,5.0,72032.0,-2.83,-3.79,-3.87,0,*69
1513015615.11,5326,5.0,72042.5,-2.85,-3.87,-3.79,0,*6C
1513015616.31,5327,5.0,72050.8,-2.83,-3.75,-3.79,0,*66
1513015617.57,5328,5.0,72064.5,-2.85,-3.67,-3.67,0,*63
1513015618.79,5329,5.0,72098.5,-2.83,-3.67,-3.75,0,*67
1513015620.02,5330,5.0,72080.0,-2.85,-3.79,-3.75,0,*66
1513015621.24,5331,5.0,72040.5,-2.85,-3.79,-3.79,0,*6B
1513015622.47,5332,5.0,72008.3,-2.85,-3.79,-3.87,0,*69
1513015623.72,5333,5.0,71982.3,-2.85,-3.91,-4.01,0,*67
1513015624.97,5334,5.0,71986.8,-2.85,-3.91,-4.01,0,*60
1513015626.2,5335,5.0,71986.5,-2.83,-3.91,-4.01,0,*67
1513015627.39,5336,5.0,72020.5,-2.83,-3.87,-3.79,0,*6B
1513015628.58,5337,5.0,72030.3,-2.83,-3.87,-3.79,0,*6A
1513015629.81,5338,5.0,72012.3,-2.85,-3.79,-3.79,0,*62
1513015631.03,5339,5.0,72000.8,-2.85,-3.87,-3.87,0,*63
1513015632.25,5340,5.0,72000.3,-2.85,-3.87,-3.79,0,*6C
1513015633.47,5341,5.0,72012.0,-2.85,-3.87,-3.87,0,*6C
1513015634.74,5342,5.0,72014.3,-2.85,-4.01,-4.01,0,*6F
1513015635.96,5343,5.0,72038.8,-2.83,-4.01,-3.91,0,*66
1513015637.24,5344,5.0,72054.8,-2.85,-4.01,-4.01,0,*69
1513015638.43,5345,5.0,72058.5,-2.83,-3.87,-3.91,0,*69
1513015639.68,5346,5.0,72044.0,-2.85,-3.91,-4.01,0,*65
1513015640.91,5347,5.0,72050.0,-2.85,-3.91,-3.87,0,*6D
1513015642.18,5348,5.0,72054.5,-2.85,-4.01,-4.01,0,*65
1513015643.42,5349,5.0,72040.5,-2.85,-3.91,-3.91,0,*64
1513015644.64,5350,5.0,72018.5,-2.85,-3.91,-3.91,0,*6C
1513015645.87,5351,5.0,72018.8,-2.85,-3.91,-3.91,0,*6D
1513015647.1,5352,5.0,71994.5,-2.85,-3.91,-3.91,0,*6E
1513015648.36,5353,5.0,71990.5,-2.85,-4.01,-3.91,0,*61
1513015649.54,5354,5.0,71994.3,-2.87,-4.09,-4.17,0,*65
1513015650.76,5355,5.0,71988.3,-2.89,-4.05,-3.95,0,*6B
1513015651.96,5356,4.94,71974.8,-2.87,-3.91,-3.91,0,*68
1513015653.18,5357,4.94,71976.5,-2.89,-4.05,-4.05,0,*67
1513015654.37,5358,5.0,72002.8,-2.87,-4.09,-4.05,0,*6A
1513015655.57,5359,5.0,72006.5,-2.87,-3.95,-4.05,0,*69
1513015656.77,5360,5.0,72006.0,-2.87,-3.95,-3.91,0,*69
1513015657.97,5361,5.0,72004.5,-2.87,-3.91,-3.95,0,*68
1513015659.19,5362,5.0,71978.3,-2.89,-3.83,-3.83,0,*61
1513015660.43,5363,5.0,71992.5,-2.87,-3.71,-3.71,0,*6E
1513015661.65,5364,5.0,71984.5,-2.89,-3.79,-3.79,0,*67
1513015662.87,5365,5.0,72004.3,-2.89,-3.83,-3.83,0,*66
1513015664.07,5366,5.0,71986.8,-2.87,-3.95,-3.91,0,*6F
1513015665.27,5367,5.0,71956.3,-2.87,-3.95,-3.95,0,*6A
1513015666.46,5368,5.0,71956.8,-2.87,-4.17,-4.17,0,*65
1513015667.67,5369,5.0,71956.0,-2.89,-4.09,-4.09,0,*6A
1513015668.89,5370,5.0,71974.3,-2.89,-4.05,-4.09,0,*6E
1513015670.09,5371,5.0,71948.0,-2.87,-3.95,-4.05,0,*63
1513015671.3,5372,4.94,71952.3,-2.89,-4.05,-3.95,0,*6E
1513015672.5,5373,5.0,71978.0,-2.87,-3.95,-3.95,0,*6F
1513015673.72,5374,5.0,71996.5,-2.89,-3.83,-3.83,0,*66
1513015674.91,5375,5.0,72028.8,-2.87,-4.05,-4.05,0,*69
1513015676.14,5376,5.0,72010.8,-2.89,-3.91,-3.91,0,*64
1513015677.37,5377,5.0,71958.5,-2.89,-3.83,-3.91,0,*66
1513015678.59,5378,5.0,71928.5,-2.89,-3.95,-4.05,0,*64
1513015679.81,5379,5.0,72006.3,-2.89,-3.95,-4.09,0,*69
1513015681.03,5380,5.0,72010.5,-2.89,-3.83,-3.79,0,*68
1513015682.27,5381,5.0,72008.8,-2.89,-3.71,-3.83,0,*61
1513015683.53,5382,5.0,72040.0,-2.89,-3.71,-3.71,0,*6F
1513015684.79,5383,5.0,72002.8,-2.89,-3.71,-3.71,0,*6E
1513015686.03,5384,4.94,72026.8,-2.89,-3.83,-3.71,0,*64
1513015687.26,5385,4.94,72016.0,-2.87,-3.67,-3.71,0,*61
1513015688.52,5386,5.0,72028.5,-2.89,-3.71,-3.71,0,*6B
1513015689.78,5387,5.0,72058.3,-2.89,-3.67,-3.71,0,*6D
1513015691.04,5388,5.0,72050.0,-2.89,-3.63,-3.63,0,*65
1513015692.3,5389,5.0,72052.8,-2.89,-3.67,-3.67,0,*64
1513015693.53,5390,5.0,72056.8,-2.87,-3.67,-3.67,0,*62
1513015694.77,5391,5.0,72058.8,-2.87,-3.67,-3.71,0,*64
1513015695.98,5392,5.0,72060.8,-2.87,-3.67,-3.79,0,*6F
1513015697.22,5393,5.0,72068.8,-2.87,-3.71,-3.71,0,*61
1513015698.42,5394,5.0,72056.5,-2.87,-3.79,-3.79,0,*66
1513015699.66,5395,5.0,72064.8,-2.87,-3.71,-3.71,0,*67
1513015700.86,5396,5.0,72060.5,-2.87,-3.79,-3.79,0,*64
1513015702.08,5397,5.0,72070.8,-2.89,-3.83,-3.79,0,*6E
1513015703.32,5398,5.0,72078.3,-2.87,-3.71,-3.71,0,*6A
1513015704.54,5399,5.0,72074.0,-2.89,-3.79,-3.79,0,*65
1513015705.78,5400,5.0,72070.5,-2.87,-3.71,-3.71,0,*6C
1513015707.01,5401,5.0,72072.8,-2.87,-3.71,-3.71,0,*6D
1513015708.23,5402,5.0,72078.0,-2.87,-3.79,-3.71,0,*66
1513015709.46,5403,5.0,72068.5,-2.85,-3.79,-3.79,0,*6D
1513015710.66,5404,5.0,72060.8,-2.87,-3.83,-3.91,0,*6B
1513015711.89,5405,5.0,72060.3,-2.89,-3.91,-3.91,0,*67
1513015713.11,5406,5.0,72056.3,-2.89,-3.83,-3.91,0,*67
1513015714.33,5407,5.0,72042.8,-2.89,-3.79,-3.83,0,*60
1513015715.54,5408,5.0,72034.5,-2.87,-3.79,-3.79,0,*64
1513015716.79,5409,5.0,72020.0,-2.89,-3.71,-3.71,0,*6B
1513015718.03,5410,5.0,72012.0,-2.87,-3.67,-3.71,0,*6A
1513015719.29,5411,5.0,72016.8,-2.89,-3.67,-3.67,0,*62
1513015720.51,5412,5.0,72016.0,-2.89,-3.79,-3.79,0,*61
1513015721.71,5413,5.0,72022.8,-2.87,-3.83,-3.83,0,*6E
1513015722.93,5414,5.0,72024.0,-2.89,-4.05,-4.05,0,*67
1513015724.12,5415,5.0,72028.8,-2.87,-3.95,-4.05,0,*66
1513015725.35,5416,5.0,72032.5,-2.89,-3.91,-3.95,0,*61
1513015726.56,5417,5.0,72038.3,-2.89,-4.09,-4.17,0,*6B
1513015727.78,5418,5.0,72040.3,-2.89,-4.05,-4.05,0,*6B
1513015728.97,5419,4.94,72044.5,-2.87,-3.95,-4.05,0,*6A
1513015730.2,5420,5.0,72048.5,-2.89,-3.95,-4.05,0,*6E
1513015731.42,5421,5.0,72042.5,-2.89,-3.95,-4.09,0,*63
1513015732.64,5422,5.0,72038.0,-2.89,-3.95,-3.95,0,*62
1513015733.86,5423,5.0,72024.5,-2.89,-3.91,-3.83,0,*60
1513015735.1,5424,5.0,72024.3,-2.89,-3.83,-3.71,0,*69
1513015736.34,5425,5.0,72036.0,-2.89,-3.71,-3.79,0,*6D
1513015737.56,5426,5.0,72042.0,-2.89,-3.79,-3.83,0,*63